Theta_e
321 322 326 327 329 329 335 336 332 337 331 328 332 327 324 328 327 324 320 318 318 319 321 323 326 326 325 326 327 328 326 332 338 335 332 328 323 326 328 328 329 328 328 327 326 325 324 322 319 318 318 318 322 326 329 331 332 334 334 334 335 336 336 337 337 337 337 338 337 336 336 335 335 334 333 333 333 332 332 331 332 334 336 337 338 339 339 339 340 340 339 339 339 339 339 338 338
323 327 329 328 329 332 344 340 331 334 327 325 330 326 325 327 324 324 322 320 320 319 322 323 326 326 324 326 323 325 325 324 328 329 324 321 322 325 326 327 327 328 328 327 326 323 321 320 317 318 320 321 323 324 325 327 328 330 332 332 333 333 334 334 335 335 335 335 334 334 333 333 332 331 331 331 332 331 330 331 331 332 334 336 337 338 338 339 339 339 339 339 339 339 338 338 337
325 330 330 330 331 333 343 339 333 329 322 326 332 331 324 323 326 326 323 321 322 321 323 324 324 324 323 327 321 321 325 321 321 321 318 319 322 324 326 326 326 328 327 327 326 322 318 318 318 320 323 325 327 326 326 327 327 328 330 330 330 330 331 332 332 332 332 332 332 331 331 331 330 330 330 330 331 330 329 330 330 331 332 333 335 336 336 337 337 337 337 337 337 337 337 336 336
326 331 329 331 338 337 339 337 338 328 323 327 327 332 327 327 331 324 322 322 323 322 324 324 323 320 320 325 321 323 325 322 321 319 319 319 321 324 325 325 325 326 326 326 326 322 317 317 319 320 324 327 328 328 328 328 328 329 329 330 329 330 330 330 330 330 330 330 330 330 329 329 329 328 329 328 328 327 327 327 328 329 329 330 332 333 332 333 333 334 335 335 335 334 334 333 332
325 329 326 329 341 339 335 335 337 328 329 328 319 330 329 328 329 322 322 322 322 322 322 321 322 320 318 322 321 326 326 323 321 317 319 318 321 324 324 325 324 325 325 326 325 321 316 317 319 318 322 325 325 326 327 327 327 327 327 327 328 328 328 328 328 328 328 328 327 327 326 326 325 325 325 324 323 323 324 324 324 325 326 327 328 329 329 329 329 330 330 330 330 330 330 329 329
325 327 325 328 335 333 333 334 335 329 330 328 320 329 326 324 325 322 321 319 321 321 321 319 321 321 319 320 319 325 324 324 321 317 319 318 320 323 323 324 323 323 323 323 322 319 316 317 317 316 318 319 320 320 321 322 322 322 322 323 324 325 325 325 325 325 324 323 322 321 320 320 319 319 319 318 318 318 318 319 319 320 321 322 323 324 324 324 324 324 324 324 324 324 324 325 325
326 328 329 332 331 328 331 332 332 330 329 327 325 327 324 324 322 321 321 319 320 319 319 320 321 321 320 318 318 320 319 321 320 318 319 318 321 322 322 322 322 322 321 321 319 317 316 316 315 315 315 315 314 314 314 315 316 316 317 318 319 320 320 320 319 319 317 316 315 313 311 310 310 310 311 311 312 312 312 312 312 312 312 313 314 316 317 317 318 317 316 315 315 315 316 317 318
324 329 334 339 336 328 329 329 327 327 328 327 325 325 324 322 321 323 323 320 320 318 319 320 321 321 321 319 321 319 316 320 319 319 319 318 321 321 320 320 320 321 320 319 317 315 315 316 314 314 313 312 310 310 310 309 310 310 310 310 311 311 311 311 310 309 308 306 305 304 303 302 302 302 303 303 304 304 304 304 304 304 304 304 304 305 306 308 308 307 306 306 306 306 306 307 308
322 328 334 336 333 328 329 329 326 325 326 327 323 323 323 321 322 325 324 320 320 319 319 320 320 320 321 319 321 317 315 319 318 318 317 318 321 319 319 318 319 319 320 319 317 315 315 315 314 313 311 309 308 307 306 305 305 304 304 303 303 303 303 302 302 301 301 300 299 299 299 298 298 298 298 299 299 299 299 299 299 299 299 299 299 299 299 299 300 299 299 299 299 299 299 300 300
324 327 331 332 330 328 330 327 328 331 327 327 326 322 322 320 321 324 324 322 321 320 319 320 318 318 319 320 324 318 316 317 316 317 315 318 318 316 317 317 318 318 318 318 316 315 314 314 313 310 308 306 305 304 303 301 301 301 300 300 300 299 299 299 298 298 298 298 298 297 297 297 297 297 297 297 297 297 297 297 297 297 297 297 297 297 297 297 297 297 297 297 297 297 297 297 297
328 329 330 329 326 326 330 329 329 335 329 324 324 321 322 322 321 322 322 321 321 321 319 318 319 319 317 319 324 317 314 316 316 316 314 317 316 314 315 315 316 316 316 315 314 314 313 313 310 306 305 304 303 302 301 301 300 300 300 299 299 299 299 299 298 298 298 298 298 297 297 297 297 297 297 297 297 297 297 297 297 297 296 296 297 297 297 296 297 296 296 296 296 296 296 296 296
331 332 330 327 328 327 328 329 327 332 334 326 321 319 321 322 320 320 321 320 320 321 319 318 320 320 318 320 321 314 313 314 315 315 314 315 314 313 313 313 314 314 314 313 313 313 312 311 306 304 303 302 301 300 300 300 301 300 300 299 299 299 299 298 298 298 298 298 298 297 297 297 298 297 297 297 297 297 297 297 297 297 296 296 296 296 296 296 296 296 295 295 295 296 296 296 297
330 332 327 328 334 331 326 327 328 332 334 327 321 319 320 321 321 322 322 321 320 322 320 318 319 318 319 322 318 312 312 313 313 314 314 313 311 310 311 312 312 312 312 311 312 311 310 308 304 303 303 301 300 299 300 300 300 300 299 299 298 298 298 298 298 298 298 298 298 297 298 298 298 297 297 297 297 297 297 297 297 297 296 296 296 296 296 296 296 296 296 296 295 295 296 296 297
328 331 323 329 335 329 325 326 327 327 329 327 319 319 319 320 321 322 322 320 320 321 319 317 318 318 319 319 319 317 313 312 312 312 312 311 309 308 309 309 309 309 309 310 311 309 307 305 302 301 301 300 299 299 299 299 299 299 298 298 298 298 298 298 298 298 298 298 298 298 298 298 297 297 297 297 297 297 297 297 297 297 297 296 296 296 296 296 296 296 296 296 296 296 296 296 296
326 333 324 326 330 327 326 326 325 322 330 330 318 319 320 318 320 320 320 319 320 319 317 316 316 319 320 318 324 324 313 312 312 311 311 309 309 308 307 307 307 307 308 308 308 306 304 302 300 299 299 298 298 299 299 299 299 299 298 298 298 298 298 298 298 298 298 298 298 297 297 297 297 297 297 297 296 296 296 296 296 296 296 296 296 296 295 296 295 295 296 296 296 296 296 296 296
326 334 326 324 328 326 327 329 327 323 331 329 317 318 319 318 318 318 318 317 320 318 317 318 316 317 318 318 322 319 312 312 312 310 309 308 308 307 307 307 306 306 306 306 305 303 301 299 299 298 297 297 298 299 299 298 298 298 298 298 297 297 297 297 298 297 297 297 297 297 297 296 296 296 296 296 296 296 296 296 296 295 295 295 295 295 295 295 295 295 294 295 295 295 295 295 295
330 332 326 326 329 326 331 332 324 325 330 325 317 318 318 318 317 316 314 314 318 318 319 319 316 315 316 317 316 313 312 312 310 309 307 306 306 305 306 305 305 305 303 303 302 302 300 299 298 297 297 297 298 299 298 298 298 297 297 297 297 297 297 297 297 297 297 296 296 296 296 296 295 295 295 295 295 295 295 295 295 294 295 295 294 294 294 295 296 295 294 294 294 294 294 295 294
331 332 325 325 328 327 333 329 321 324 326 321 318 319 318 319 319 316 314 316 316 316 318 318 317 315 313 313 313 312 311 310 309 308 306 305 305 304 304 304 304 304 302 302 301 300 300 299 298 297 297 297 298 298 298 298 297 297 297 297 296 296 296 296 296 296 296 296 296 297 296 295 295 295 295 295 295 295 295 294 294 294 294 294 294 294 294 294 294 294 293 293 293 293 294 294 294
331 333 326 327 333 331 328 323 320 321 319 321 321 320 318 318 320 316 315 319 317 316 317 316 317 316 312 310 310 310 309 309 308 306 305 305 304 304 304 303 303 302 301 301 301 300 300 300 299 297 297 298 298 298 298 297 297 297 296 296 296 296 296 296 296 296 296 296 296 296 295 295 294 294 295 295 294 294 294 294 294 294 294 294 294 294 294 293 293 293 293 293 293 293 293 293 293
329 328 326 333 334 327 324 320 320 319 318 320 319 318 317 318 318 315 316 319 318 317 316 316 317 316 316 311 307 308 308 307 306 306 305 305 305 304 304 303 303 303 302 301 302 301 300 299 299 298 298 298 299 299 298 297 296 296 296 295 295 295 295 295 295 295 296 296 296 296 295 295 294 294 295 294 294 294 294 294 294 294 294 294 294 294 294 294 293 293 293 293 293 293 293 293 293
326 324 325 333 327 322 323 321 319 320 319 319 319 317 317 318 316 316 317 317 317 316 315 316 317 315 316 312 307 306 306 305 305 305 305 304 305 305 305 305 304 304 303 301 301 301 300 300 299 298 298 298 299 299 297 296 296 296 295 295 295 295 295 295 295 295 296 295 296 295 295 295 295 295 295 294 294 294 294 294 294 294 294 294 293 293 293 293 293 293 293 293 293 293 293 293 293
324 322 322 326 323 321 322 320 320 320 317 317 318 317 317 318 317 316 317 316 317 317 316 315 316 315 315 312 308 306 306 305 305 305 305 305 305 305 305 305 305 304 303 302 301 301 301 300 300 299 298 298 298 298 297 297 296 296 295 295 295 295 295 295 295 295 295 295 295 295 295 296 295 295 295 294 294 293 294 294 294 294 294 294 293 293 293 293 293 293 293 293 293 293 293 293 293
323 323 321 321 321 321 319 319 320 319 316 317 317 316 316 316 317 318 317 316 316 317 319 318 316 314 311 311 309 308 308 307 306 305 305 305 305 305 305 305 304 304 303 303 302 301 301 301 300 300 299 299 298 297 297 296 296 296 296 295 295 295 295 295 295 295 295 295 295 295 296 296 295 295 295 294 294 294 294 294 294 294 294 294 294 293 293 293 293 293 293 293 293 293 293 293 293
322 323 321 320 320 319 318 318 320 319 316 318 317 315 315 316 317 317 316 315 314 316 318 318 315 311 310 312 310 310 310 308 306 306 306 306 306 306 306 305 305 304 303 303 303 302 301 301 300 300 300 299 298 297 296 296 296 296 296 296 296 295 295 295 295 295 295 295 295 296 296 296 296 295 295 295 294 294 294 294 294 294 294 294 293 293 293 293 293 292 292 292 292 292 292 292 292
321 321 320 318 319 319 318 318 318 319 317 317 316 315 316 316 316 315 315 315 314 315 316 316 315 314 315 315 312 311 310 308 306 306 306 306 307 307 306 306 305 304 303 303 303 302 302 301 301 300 300 300 299 297 296 296 296 297 297 296 296 296 295 295 296 295 295 295 295 296 296 296 296 295 295 295 294 294 294 293 293 294 293 293 293 293 293 292 292 292 292 292 292 292 292 292 291
320 319 318 317 317 316 316 316 316 317 317 316 315 316 316 315 314 314 314 313 313 315 315 316 315 316 317 317 313 311 311 309 306 306 306 306 306 306 306 306 305 304 304 304 303 303 303 302 301 301 300 300 299 297 296 296 297 297 297 296 296 296 296 296 296 296 295 295 295 295 295 295 295 295 294 294 294 294 293 293 293 293 293 293 292 293 292 292 292 292 291 291 291 291 291 290 290
318 316 317 316 316 315 315 315 315 315 316 316 316 316 315 313 314 314 315 314 314 315 315 314 315 315 315 315 314 311 311 310 307 307 307 306 306 306 306 306 305 305 305 304 304 303 303 302 301 301 300 300 299 298 297 297 297 297 297 297 296 297 296 296 296 296 295 295 295 294 294 294 294 294 294 294 294 294 293 293 293 293 293 292 292 292 292 292 292 292 291 291 291 290 290 290 289
315 315 317 316 315 315 315 315 315 313 315 316 315 315 315 313 314 314 314 315 316 316 317 315 315 315 315 314 313 311 310 309 307 307 307 306 306 306 306 306 306 305 305 305 304 303 303 302 302 301 301 300 299 298 298 298 298 297 298 297 297 297 297 297 296 296 295 295 294 294 294 294 293 293 293 293 294 294 293 293 294 293 293 292 292 292 292 292 292 291 291 291 290 290 290 289 289
315 315 316 317 315 315 315 315 315 314 315 316 314 315 316 314 314 315 314 314 315 315 317 317 316 314 314 314 313 312 310 308 307 306 307 307 307 307 306 307 307 305 305 305 304 303 303 302 302 301 301 301 300 299 298 298 298 298 298 298 297 297 297 297 296 295 295 295 294 293 293 293 293 293 293 293 293 294 294 294 294 293 293 292 292 292 292 292 291 291 291 291 290 290 290 289 289
315 315 315 316 315 317 316 314 316 314 314 315 314 315 317 316 314 314 313 313 314 314 314 315 316 315 314 314 313 313 311 309 308 307 307 308 308 307 307 307 307 306 305 304 304 303 303 302 302 301 301 301 300 299 299 298 298 298 298 298 297 297 297 297 296 295 295 295 294 293 293 293 293 293 293 294 294 294 294 294 294 293 292 292 291 291 291 291 291 291 291 291 290 290 290 289 288
315 315 317 317 316 319 318 315 318 316 313 314 315 315 316 316 315 314 313 313 313 313 314 313 314 314 314 314 314 313 312 309 308 308 308 308 308 308 308 307 307 307 305 304 304 304 303 302 302 301 301 301 300 299 299 299 298 298 297 297 297 296 296 296 295 295 295 294 294 292 293 293 293 293 293 293 294 294 294 294 294 293 292 291 291 291 291 291 291 291 291 291 290 290 289 289 288
317 315 319 321 319 318 318 316 317 317 313 312 314 316 315 315 315 314 313 313 313 313 313 313 313 313 313 313 314 313 313 309 307 308 309 309 309 309 308 308 307 307 306 305 304 303 303 302 302 301 301 300 300 299 298 298 298 298 297 297 297 296 296 295 295 295 295 294 293 292 292 293 293 293 293 293 293 293 293 294 293 292 291 290 290 290 290 290 290 290 290 290 290 289 289 288 288
321 316 317 322 320 317 318 318 316 317 315 312 314 316 316 316 316 316 314 314 314 314 314 314 313 313 312 312 313 313 313 312 309 308 307 309 309 309 309 308 308 307 307 305 304 303 302 302 301 301 301 300 300 299 298 298 298 298 297 297 297 296 296 295 295 294 294 294 293 292 292 292 292 292 292 292 292 293 293 293 292 291 290 290 290 290 290 290 290 290 290 289 289 288 288 288 288
320 318 317 319 319 316 318 320 317 315 315 313 313 314 315 316 316 317 316 314 315 315 315 315 315 313 313 312 312 313 313 313 312 309 307 308 309 309 309 309 308 308 307 306 304 303 302 301 301 300 300 300 299 299 298 298 298 298 298 297 297 296 296 295 295 294 294 294 293 292 292 292 291 291 291 292 291 292 292 292 291 290 290 290 290 290 290 290 290 290 289 289 288 288 288 288 288
318 321 320 319 318 316 316 319 317 315 315 315 314 313 313 313 313 314 314 313 313 315 316 316 315 314 313 313 312 312 312 312 312 310 308 308 309 309 309 309 308 308 307 306 304 303 302 301 300 300 300 299 299 298 298 298 298 298 298 297 297 296 295 295 295 294 294 294 293 293 292 291 291 291 291 291 291 291 291 291 291 290 290 290 289 289 289 289 289 289 289 289 288 288 288 288 287
317 320 319 318 317 315 315 316 317 316 315 316 315 313 313 313 312 312 312 312 312 313 314 315 315 314 314 313 313 312 312 312 311 309 309 309 308 309 309 308 308 307 307 305 304 303 301 300 300 299 299 299 299 298 298 298 297 297 297 297 296 296 295 295 295 295 294 294 293 293 292 292 291 291 290 291 291 291 291 291 291 291 290 290 289 289 289 289 289 289 289 289 289 288 288 288 287
315 317 316 316 316 314 315 316 318 317 316 317 317 315 314 313 313 313 312 312 313 312 312 313 313 313 313 313 313 313 313 312 311 309 309 309 308 308 308 308 307 307 306 304 303 302 301 300 300 299 299 299 298 298 298 297 297 297 296 296 296 295 295 295 295 295 294 294 294 293 292 291 291 291 290 291 291 291 291 291 291 290 290 289 289 288 289 289 289 289 289 289 289 288 288 288 287
315 316 316 316 317 316 315 316 317 316 315 316 316 315 314 313 313 313 313 312 313 313 312 312 312 312 312 313 312 313 313 313 315 313 308 307 308 307 307 307 306 305 304 304 303 302 301 300 300 299 298 298 298 298 298 297 297 297 296 296 296 295 295 295 295 295 294 294 294 293 292 291 291 290 290 290 291 291 291 291 291 290 290 289 289 288 288 289 289 289 289 288 288 288 287 287 287
316 316 317 317 318 316 315 316 317 314 314 318 317 314 313 312 312 311 312 312 312 313 313 313 313 312 312 312 312 312 312 314 319 319 310 305 305 306 306 305 305 305 304 303 303 302 301 300 300 299 298 298 298 298 298 297 297 297 296 296 295 295 295 295 295 295 294 294 294 293 292 291 290 290 290 290 291 291 291 291 290 290 289 289 288 288 288 289 289 289 288 288 287 287 287 287 287
317 317 317 317 317 316 315 315 316 313 313 318 317 314 312 311 312 312 312 312 312 313 313 314 314 314 313 313 313 313 313 315 320 322 314 306 304 304 304 303 304 304 303 302 302 301 300 300 299 299 298 298 297 297 297 297 297 296 296 296 295 295 295 295 294 294 294 294 293 293 292 291 290 290 290 290 290 290 291 291 290 290 289 288 288 288 289 289 288 288 288 287 286 287 287 287 287
316 317 317 316 316 317 314 315 318 316 316 316 314 314 314 313 313 313 313 312 312 313 313 313 313 314 314 314 314 314 314 315 319 321 315 308 306 303 302 302 302 302 302 302 301 301 300 300 299 299 298 298 297 297 297 296 296 295 295 295 294 294 294 294 294 293 293 293 293 292 292 291 290 290 290 290 290 290 290 290 290 289 289 289 288 288 289 288 288 288 287 286 286 286 286 287 287
315 317 318 317 316 317 316 317 318 320 322 318 315 317 316 317 317 314 314 314 313 313 312 313 313 313 313 314 313 314 316 318 318 317 313 309 306 302 300 301 301 301 301 302 302 301 300 300 299 299 298 298 297 297 296 296 296 295 294 294 293 293 293 293 293 293 293 293 292 292 291 291 290 289 289 289 289 289 290 290 289 289 288 288 288 288 288 288 288 288 287 286 285 286 286 287 287
315 320 324 320 318 318 319 321 321 325 328 320 318 321 319 317 318 316 317 318 317 317 315 314 313 313 313 314 314 314 318 322 320 314 310 308 306 303 300 299 299 300 300 301 301 301 300 300 299 299 298 297 297 296 296 296 295 295 295 294 293 293 292 292 293 292 292 292 292 291 291 290 289 289 289 289 289 289 289 289 289 288 288 288 288 288 288 288 288 287 287 286 285 286 286 286 286
316 325 330 324 322 323 322 322 324 327 325 318 320 322 319 317 317 318 319 319 319 318 317 316 315 315 314 314 315 315 318 324 323 315 310 307 306 304 301 298 298 300 300 300 300 300 300 300 299 299 298 297 297 296 296 296 295 295 294 294 293 293 293 293 292 292 292 292 291 291 291 290 289 289 288 289 289 288 289 288 288 288 287 288 288 288 288 288 288 287 287 286 285 285 285 285 285
318 322 325 323 322 323 321 319 322 325 320 317 320 319 318 318 315 316 316 315 316 315 315 316 315 316 315 313 315 314 317 322 322 316 311 308 305 302 300 299 299 299 300 300 300 300 300 299 299 298 297 297 296 296 296 296 295 295 294 294 293 293 293 293 292 292 292 292 291 291 291 290 289 288 288 288 288 288 288 288 287 287 287 287 287 287 287 288 288 287 286 285 284 284 284 284 284
319 319 322 325 326 323 319 316 318 322 320 319 321 318 317 318 315 316 315 314 315 314 313 314 314 315 315 313 315 313 315 321 321 315 310 307 303 301 300 299 298 298 299 299 299 299 299 298 298 297 297 297 296 296 296 295 295 294 294 294 293 293 293 292 292 292 292 291 291 291 290 289 289 289 288 288 288 287 287 287 287 287 287 287 287 287 287 288 288 287 286 285 284 284 284 284 284
317 318 320 327 331 326 324 322 318 318 319 319 321 319 316 318 318 317 315 316 317 315 314 314 313 314 315 313 315 314 314 321 322 315 310 306 301 300 300 298 297 297 298 298 298 298 298 298 298 297 297 296 296 296 295 295 295 294 294 294 293 293 293 292 292 291 291 291 291 291 290 289 289 289 289 288 287 287 287 287 287 287 286 287 287 287 287 287 287 286 285 284 284 284 283 283 283
316 322 322 323 330 328 325 324 319 317 318 319 320 319 317 317 317 316 315 316 316 315 315 318 316 315 315 314 314 314 315 321 322 316 312 309 304 301 298 296 296 296 296 297 297 297 297 297 297 297 296 296 296 295 295 295 294 294 294 294 294 293 293 293 292 292 291 291 291 290 289 289 289 289 289 288 287 287 287 286 286 286 286 286 287 287 287 287 287 286 285 284 284 283 283 283 282
316 322 321 320 324 323 321 322 323 321 320 319 318 317 316 315 316 316 316 318 317 315 315 319 320 318 317 317 317 316 320 325 324 318 314 310 307 305 300 295 294 295 295 296 296 296 297 296 297 296 296 296 295 295 295 295 294 294 294 294 294 293 293 293 292 292 291 291 290 290 289 290 289 289 288 288 287 287 287 286 287 286 286 287 286 286 286 287 286 285 284 283 283 283 282 282 282
315 318 320 320 320 319 320 325 326 321 321 321 316 316 317 316 318 318 315 316 318 316 315 317 319 319 319 322 324 323 326 326 320 318 314 309 307 305 299 294 294 294 294 295 296 296 296 296 296 296 296 296 295 295 294 294 294 294 294 294 293 293 293 293 292 292 292 291 290 290 290 290 290 289 289 288 288 287 287 287 287 286 286 286 286 286 286 286 286 284 283 283 282 282 282 282 281
314 316 319 318 323 326 323 325 324 319 326 326 315 318 322 317 319 321 315 314 316 315 316 316 316 316 317 324 329 328 328 324 317 317 314 309 306 302 297 294 294 294 294 294 295 295 295 295 295 295 295 295 295 295 294 294 294 294 293 293 293 293 293 293 292 292 292 291 291 291 290 290 290 290 289 288 288 287 287 286 286 286 286 286 286 286 286 285 285 284 283 282 282 282 282 281 281
315 318 317 314 322 325 319 321 321 317 324 324 316 322 326 317 314 318 315 315 316 315 315 314 314 315 315 322 332 331 327 322 318 317 315 310 305 298 294 294 294 293 294 294 294 294 294 295 295 295 295 295 295 294 294 294 294 293 293 293 293 292 292 292 292 292 292 291 291 291 291 290 290 290 289 288 287 287 286 286 286 286 286 286 285 285 285 285 284 283 283 282 282 281 281 281 281
316 317 317 314 319 320 316 323 324 316 318 319 317 321 321 316 315 315 314 314 315 314 314 313 313 315 314 319 328 329 327 324 320 317 314 311 307 299 294 294 294 293 294 294 294 294 294 294 294 294 294 294 294 294 294 294 293 293 292 292 292 292 292 292 292 291 291 291 291 291 291 290 290 289 288 288 287 287 286 286 286 285 285 285 284 284 284 284 284 283 282 281 281 281 280 280 280
317 318 317 315 319 320 321 325 325 320 318 318 317 317 315 315 317 318 316 315 315 316 316 315 314 314 314 315 322 327 326 319 313 311 311 309 308 302 295 293 294 294 294 294 294 294 294 294 294 294 294 294 294 294 294 293 293 292 292 292 292 292 292 292 291 291 291 291 291 290 290 290 289 288 288 288 287 286 286 286 285 285 285 285 284 284 284 284 283 282 281 281 281 280 280 280 280
317 320 318 317 320 322 322 322 322 320 318 318 317 316 315 314 314 315 315 315 316 317 316 315 313 313 313 314 320 325 320 314 312 312 311 309 308 303 296 294 295 294 294 294 294 293 293 294 294 294 294 294 293 293 293 293 293 292 292 291 291 291 291 291 291 291 291 291 291 290 290 289 289 288 288 287 287 286 286 285 285 285 285 284 284 284 283 283 282 281 281 281 280 280 280 279 279
314 316 316 316 318 322 323 320 320 320 318 317 317 317 315 315 315 315 315 316 316 315 314 314 312 312 313 314 319 322 322 322 321 316 311 308 306 302 296 295 296 295 295 294 293 293 293 293 293 293 293 293 293 293 293 292 292 292 292 291 291 291 291 291 290 290 290 290 290 290 289 289 288 288 287 287 286 286 286 285 285 285 285 284 283 283 283 282 282 281 281 280 280 279 279 279 278
315 316 316 315 313 318 321 318 318 319 316 316 316 316 315 315 318 316 314 318 319 318 318 316 313 313 314 315 317 322 326 329 326 320 314 309 304 300 296 296 297 296 295 294 293 293 293 292 292 292 292 292 292 292 292 292 292 292 291 291 290 290 290 290 290 290 290 290 289 289 289 288 288 287 287 286 286 286 285 285 285 285 285 284 283 283 283 282 281 281 280 280 279 278 278 278 278
317 316 316 316 314 316 317 316 317 317 315 315 315 316 315 314 316 314 312 318 321 320 319 318 317 316 317 319 323 326 328 328 328 325 317 309 305 302 296 295 296 295 294 294 293 293 292 292 292 292 292 292 292 292 292 292 292 291 291 291 290 290 289 289 289 289 289 289 289 289 288 288 288 287 286 286 286 285 285 285 285 285 284 283 283 283 282 281 280 280 280 279 278 278 278 277 277
Wind_Speed
3 4 5 5 7 8 6 2 2 3 2 2 4 1 4 3 2 2 1 0 2 1 1 3 3 3 3 3 6 6 2 2 4 5 2 5 14 17 17 16 14 12 11 10 8 9 9 9 8 7 7 7 6 6 7 8 8 8 9 8 9 9 8 8 8 8 7 7 6 4 4 4 4 4 3 2 2 2 3 4 4 5 5 7 8 8 7 7 8 8 7 7 7 7 6 6 6
2 3 5 4 5 4 2 3 3 3 3 3 4 3 4 2 2 2 4 3 2 3 2 4 5 5 5 5 7 4 2 2 2 4 2 11 17 16 20 18 14 12 12 12 10 10 10 10 9 8 9 8 7 6 8 8 8 7 8 8 8 8 8 8 8 7 6 6 4 2 1 1 1 2 2 3 3 2 2 2 3 4 4 6 7 6 6 6 7 8 7 6 6 5 5 5 5
2 4 7 5 3 1 1 3 2 0 2 3 4 4 2 2 1 1 2 3 5 5 3 4 4 3 4 4 4 1 2 1 3 4 4 16 16 17 24 20 16 15 15 14 11 10 10 10 9 9 10 10 8 8 8 8 7 7 7 7 7 7 8 8 7 7 7 7 5 3 2 2 3 3 4 5 5 3 2 2 2 3 4 6 7 5 3 3 4 4 4 4 4 4 4 4 4
4 4 6 5 2 3 3 2 2 3 1 4 3 6 3 5 6 3 2 3 4 2 3 3 3 0 2 2 1 2 3 2 6 7 7 18 19 23 27 22 19 17 16 14 13 11 9 10 10 10 10 11 10 9 9 9 8 8 8 8 7 7 8 7 7 8 7 7 7 7 6 6 6 7 6 6 5 3 3 2 2 3 3 5 7 5 4 3 3 3 3 4 5 5 5 6 6
4 3 3 3 3 1 2 1 0 2 3 4 2 6 4 6 7 5 3 1 1 2 3 4 1 2 2 2 1 2 4 2 6 9 12 19 23 27 27 25 21 17 17 14 14 12 10 10 9 9 9 10 9 9 9 9 8 7 7 6 6 7 7 7 7 8 8 7 7 7 7 8 7 7 6 5 4 4 4 4 4 3 3 4 5 5 5 5 5 5 5 5 6 7 7 7 8
4 5 2 2 1 1 2 1 2 3 5 5 3 6 5 7 7 6 3 2 3 3 2 3 3 1 1 1 1 3 5 5 8 11 17 21 24 29 27 26 22 18 18 15 15 13 11 11 9 9 9 9 9 9 8 8 8 7 6 6 6 5 5 5 6 6 6 5 5 5 6 6 6 6 5 5 4 5 5 5 5 5 4 4 4 5 6 6 6 6 6 7 7 8 8 9 9
5 5 2 2 2 1 3 3 4 4 5 5 5 4 7 7 7 8 4 2 3 4 2 1 5 5 1 1 1 1 3 7 9 12 20 24 27 30 26 26 23 20 19 16 16 14 13 12 11 11 10 11 10 10 10 9 9 8 8 7 7 6 6 6 5 5 5 4 4 4 4 5 5 5 5 5 5 5 5 6 6 6 6 5 4 4 5 6 6 7 7 8 8 8 9 9 9
3 2 1 4 2 2 2 4 4 4 5 4 4 5 8 9 7 8 6 3 0 1 0 1 4 4 4 3 2 2 3 5 7 15 22 25 31 29 26 27 24 22 19 18 16 15 15 14 13 13 13 13 12 12 11 11 10 9 9 8 8 7 7 6 5 5 5 4 3 3 4 4 4 4 4 5 5 5 5 6 6 6 6 6 6 5 6 6 6 7 8 8 8 9 9 9 9
1 0 2 3 1 2 1 4 4 4 6 5 2 3 7 9 8 7 6 2 2 3 3 4 5 3 4 3 2 3 2 6 11 18 23 28 32 29 27 27 26 24 21 19 17 16 16 16 16 15 15 14 13 13 12 11 10 9 9 8 8 7 7 6 5 5 5 4 4 4 4 5 5 5 5 5 6 6 6 7 7 7 7 8 8 7 7 7 7 7 8 8 8 9 9 9 9
1 1 2 2 1 2 4 3 4 4 6 5 4 5 7 8 6 6 7 4 4 4 4 5 4 2 2 3 3 2 4 12 18 23 24 29 31 28 28 27 26 25 23 21 18 17 17 17 18 17 16 15 15 14 12 11 9 8 7 7 7 6 6 5 5 5 5 5 5 6 7 7 7 7 7 7 8 8 8 9 9 9 9 9 10 10 9 9 9 9 9 9 9 9 9 9 10
2 2 2 2 1 2 4 4 4 5 6 2 2 4 6 7 5 5 6 3 4 5 4 4 2 3 1 2 3 1 11 19 22 26 27 29 30 27 27 26 25 23 23 22 19 18 18 18 18 18 17 16 15 13 12 10 9 8 7 7 6 5 5 5 5 5 6 6 6 7 8 9 9 9 9 9 9 9 9 10 10 10 10 11 11 11 11 11 11 11 12 11 12 12 12 11 11
2 2 3 2 2 3 4 4 6 6 6 3 1 5 3 6 4 4 6 4 4 5 5 6 4 5 2 3 3 3 16 21 21 25 27 29 28 26 26 25 24 22 21 20 19 19 18 18 18 18 17 16 15 13 12 10 9 8 8 8 7 7 6 6 7 7 7 7 7 8 8 8 9 9 9 9 9 9 9 9 9 10 10 10 10 11 11 11 12 12 12 13 13 13 13 13 13
1 1 4 1 4 3 3 4 6 5 6 3 3 4 1 4 3 6 5 4 7 5 6 9 5 5 4 3 1 2 13 20 21 23 27 30 27 25 26 26 24 22 20 19 19 19 20 20 19 18 18 17 16 14 12 11 10 9 9 9 8 8 8 8 8 8 8 8 8 8 8 9 9 9 9 9 9 9 9 9 8 8 8 9 9 9 10 10 11 11 12 12 12 12 12 12 12
1 2 4 2 2 1 4 3 5 4 4 4 2 2 1 2 4 5 5 3 6 6 5 8 7 4 3 2 1 3 11 20 22 23 27 29 26 25 26 26 24 22 20 19 19 20 21 21 21 19 18 18 16 15 13 12 11 11 10 10 9 9 9 9 9 9 9 9 9 9 9 9 9 9 9 9 8 8 8 8 7 7 7 8 8 8 9 9 10 10 10 11 11 11 11 11 12
2 0 3 1 3 3 3 3 5 4 5 4 3 2 1 1 2 2 4 4 6 4 1 4 5 2 3 5 5 6 15 25 24 24 27 26 24 24 24 24 23 22 21 20 20 22 23 22 22 20 19 18 17 16 15 14 13 12 12 11 11 11 11 11 11 11 11 11 11 11 11 11 11 10 10 9 9 8 8 8 8 8 8 8 9 9 9 9 10 11 11 11 11 11 11 12 12
2 2 3 1 3 2 3 3 3 4 5 5 3 3 2 4 1 1 3 3 2 3 1 4 5 2 4 6 5 6 21 29 26 26 26 23 22 22 22 23 22 22 22 21 21 23 24 23 22 22 21 20 19 17 16 16 15 14 14 14 14 14 14 14 14 14 14 14 14 13 13 12 12 11 10 9 9 9 9 9 9 9 9 10 10 11 11 11 12 13 13 13 13 13 13 13 13
3 4 2 2 3 2 4 3 1 3 5 5 3 2 4 5 3 0 1 2 2 2 2 4 4 1 1 3 5 14 27 30 28 27 25 24 22 21 21 22 22 23 24 23 23 24 24 24 24 23 22 21 20 19 18 17 17 17 17 17 17 17 17 17 18 17 17 16 15 14 13 12 12 11 10 10 10 10 10 10 10 10 10 11 12 12 12 12 12 13 13 14 14 14 14 14 14
3 3 2 3 3 4 5 4 3 2 2 4 4 4 6 3 3 0 1 1 2 3 4 4 4 2 4 6 14 22 30 31 30 29 26 24 22 22 22 24 26 26 27 25 25 25 26 25 25 25 24 23 22 20 20 19 18 18 19 19 19 19 19 19 18 18 16 15 13 12 12 11 10 10 10 10 10 10 9 10 10 10 11 11 12 12 12 12 12 13 13 14 15 15 15 15 15
3 3 2 4 5 5 4 4 4 1 2 4 4 5 5 5 4 1 2 5 3 5 6 4 6 4 5 10 18 25 29 30 30 29 26 25 25 24 23 25 27 28 30 29 29 28 28 27 26 26 26 25 23 22 21 20 19 19 20 20 19 19 19 18 17 16 15 13 12 11 11 11 10 9 9 9 9 9 9 9 10 10 11 11 11 11 11 12 12 12 13 14 15 15 16 16 16
2 3 2 6 7 5 6 4 3 2 3 3 2 2 4 5 3 3 3 6 5 8 8 5 9 10 6 8 15 23 25 26 28 27 26 26 27 27 26 27 29 32 35 34 32 31 30 29 28 27 27 26 25 23 22 21 20 20 20 20 19 19 18 18 17 16 15 14 13 12 12 12 11 10 9 9 9 8 8 9 9 9 9 10 10 10 11 11 11 12 13 13 14 15 15 16 16
2 4 5 7 4 4 8 6 2 1 1 2 0 2 3 5 3 4 4 4 8 9 9 10 12 13 10 9 12 19 21 21 24 24 24 25 26 27 28 31 33 35 35 34 33 33 32 31 30 29 29 28 26 25 23 22 21 21 21 20 19 18 18 18 17 17 15 14 14 13 12 12 11 10 9 9 9 8 8 8 8 9 8 9 10 10 11 11 12 12 12 13 13 14 14 15 15
2 5 8 8 4 5 8 6 3 2 2 2 1 3 5 3 3 5 6 6 10 6 8 12 13 12 11 13 14 16 16 17 20 22 23 25 27 28 28 30 30 29 31 34 36 36 35 33 32 31 30 29 27 26 24 23 23 22 22 21 20 19 19 18 18 17 16 15 15 14 13 13 12 10 9 9 9 7 7 7 7 8 8 9 10 11 11 12 13 13 13 13 13 13 13 14 14
4 6 5 7 7 6 6 4 4 3 1 2 2 3 2 2 5 6 9 14 13 6 7 10 10 11 13 16 15 14 15 15 18 24 27 28 29 31 31 31 31 31 33 36 38 38 37 35 34 33 32 30 28 26 25 24 24 23 23 22 22 21 20 20 19 18 17 16 15 14 13 12 11 10 9 8 8 7 7 7 6 7 7 8 9 11 11 13 14 14 14 13 13 13 13 13 14
7 6 5 7 7 8 7 5 5 5 5 6 3 1 2 5 7 3 8 18 16 7 6 7 7 6 10 13 14 16 17 17 22 29 32 33 35 37 35 34 34 34 34 35 37 38 38 37 36 34 33 32 30 28 27 26 25 24 24 24 24 23 22 21 20 18 17 16 15 14 13 11 11 10 9 8 7 7 6 6 5 5 6 7 9 10 11 12 13 13 13 13 13 13 13 14 14
7 7 5 5 6 7 7 6 6 6 6 5 2 5 8 9 4 6 14 19 13 8 8 9 8 4 8 12 15 15 15 17 21 26 29 32 33 32 31 31 31 31 34 36 36 38 39 38 37 36 35 34 31 30 29 28 27 26 25 25 24 23 23 22 20 19 18 16 16 15 13 12 11 10 10 8 7 7 6 5 4 4 6 7 9 10 11 12 12 13 14 14 14 14 14 14 15
6 6 5 5 6 7 7 8 9 7 5 4 4 11 10 6 3 10 21 21 13 8 8 10 9 9 8 11 14 15 15 16 19 23 28 30 27 26 30 31 30 33 37 36 36 39 39 39 39 39 37 35 33 32 32 30 29 28 27 27 26 24 23 22 21 20 18 18 17 15 14 13 12 11 10 9 8 7 6 5 3 4 6 7 8 10 11 12 13 14 14 15 15 15 15 15 15
4 3 6 8 8 8 6 9 11 7 5 6 9 13 8 3 2 9 19 13 7 8 11 11 9 11 11 10 11 14 15 18 23 25 23 22 24 28 31 32 34 36 36 36 38 39 39 40 40 40 39 37 35 34 34 32 31 30 29 28 27 25 24 23 21 20 19 19 18 17 15 13 12 11 10 9 8 7 6 4 2 3 5 6 8 9 10 12 13 14 14 15 15 15 15 14 15
3 3 8 11 8 9 9 11 12 6 5 9 11 9 7 0 5 15 20 6 3 7 10 10 9 11 11 11 11 10 12 20 25 22 18 21 28 32 33 36 38 37 36 39 40 39 39 41 41 40 39 38 37 36 35 34 33 31 30 29 28 26 25 24 22 21 21 20 19 18 16 14 13 12 10 9 8 7 5 4 1 2 4 6 7 9 10 11 12 12 13 14 14 14 14 15 16
3 2 6 14 8 10 15 13 10 6 4 7 9 4 8 6 11 21 22 8 4 8 8 9 10 11 11 11 10 9 12 17 18 19 24 30 33 34 36 40 40 38 38 39 38 38 40 41 41 40 40 39 39 38 36 35 34 33 31 30 29 27 26 24 23 22 21 21 20 19 17 16 14 13 11 10 9 7 6 4 2 1 3 5 7 8 9 10 10 11 12 13 13 14 15 17 17
4 1 2 9 7 9 14 8 7 7 5 8 10 2 9 11 17 21 18 10 8 10 11 11 9 9 10 10 9 11 13 12 14 22 31 33 32 34 37 38 39 38 37 36 38 40 40 41 41 40 40 40 39 39 37 36 34 34 32 30 29 29 27 25 24 24 22 21 21 19 18 17 15 14 12 11 10 8 7 5 3 1 2 4 6 7 8 9 10 11 12 13 14 15 16 18 18
3 2 2 4 3 8 9 2 4 4 3 8 10 3 10 13 16 16 13 9 9 11 13 12 10 10 9 9 10 12 13 12 19 28 32 32 32 33 35 35 36 37 35 36 40 41 41 41 41 40 40 40 40 39 38 36 35 34 32 31 30 29 28 26 26 25 24 23 21 20 19 18 16 15 14 12 11 9 8 6 4 1 1 3 4 5 7 8 9 11 12 13 14 16 17 17 18
1 1 4 3 4 7 10 5 6 6 3 5 9 4 11 15 15 14 10 8 10 11 13 11 11 11 10 10 10 12 13 13 19 27 29 30 31 33 35 34 35 38 39 39 41 40 41 41 41 41 40 40 40 39 38 37 35 34 32 32 31 30 29 28 27 26 25 24 22 22 21 18 16 15 14 13 11 10 8 7 5 2 1 2 3 4 6 7 9 10 11 13 15 16 17 17 18
2 4 6 5 5 5 7 7 4 8 5 4 8 5 8 11 10 12 8 6 9 10 12 12 11 11 11 10 10 11 12 11 14 20 25 28 32 35 36 36 37 40 42 41 40 41 41 41 41 41 40 40 39 39 38 37 35 34 33 31 31 30 29 29 28 27 26 25 24 23 22 20 18 16 15 13 12 11 9 8 5 3 2 0 2 4 5 6 8 10 11 12 14 15 17 18 18
4 3 5 6 7 5 5 7 3 6 8 7 10 8 11 13 9 10 9 5 6 8 11 12 11 10 10 10 10 12 12 12 13 16 22 28 33 36 36 37 38 40 41 40 40 41 41 41 41 40 40 39 39 38 38 37 35 33 32 31 30 30 30 29 29 28 27 26 25 24 23 21 18 17 15 14 13 12 10 8 6 4 3 1 1 3 4 5 7 9 10 11 12 14 15 17 19
4 4 4 5 7 6 9 8 2 6 6 7 8 8 15 19 14 13 14 9 6 8 10 10 11 11 11 10 11 12 12 14 16 16 21 28 33 35 36 36 37 38 39 39 39 40 39 39 39 39 39 39 39 38 37 36 34 33 32 30 29 29 29 29 29 28 28 26 25 24 23 22 19 18 16 15 14 12 11 9 7 5 3 1 1 2 3 4 6 7 9 10 11 13 14 16 18
6 7 6 7 7 7 11 11 5 8 5 6 10 11 15 19 18 16 16 12 10 11 9 9 11 11 11 11 13 12 12 16 16 14 20 28 33 35 35 35 36 37 38 38 38 39 39 39 39 39 39 40 39 38 38 36 34 33 32 31 30 30 30 30 29 29 28 27 26 24 24 22 20 19 17 16 15 13 12 10 8 6 4 3 1 1 2 4 5 7 8 9 12 13 14 15 17
9 9 8 9 8 10 13 11 7 8 6 8 12 14 16 18 19 17 14 10 10 12 11 11 12 12 12 14 16 14 14 16 12 10 19 27 31 32 33 33 33 34 35 37 39 39 40 41 41 41 41 42 42 41 40 40 38 36 35 35 34 33 32 31 30 29 29 28 27 25 24 23 21 20 18 17 16 14 13 11 9 7 6 4 3 2 1 3 5 6 7 9 11 13 15 15 16
11 9 9 10 7 11 14 10 7 6 5 8 11 13 16 17 18 15 10 8 11 14 13 13 14 13 13 15 18 16 14 12 8 7 14 21 25 28 30 31 33 34 35 38 40 41 41 42 43 43 43 43 44 44 43 42 42 40 39 38 37 35 35 34 33 31 30 29 28 26 24 23 22 21 19 19 17 16 14 12 10 9 7 6 4 3 1 2 4 5 6 8 9 11 14 14 15
9 7 8 8 6 10 12 9 6 4 5 7 10 11 13 15 17 14 11 11 12 14 15 15 15 13 14 16 17 16 14 11 9 6 7 14 21 25 28 30 34 36 36 38 40 40 41 42 43 43 44 45 44 45 44 43 41 39 37 36 36 35 34 34 33 32 31 29 28 27 25 24 23 21 20 20 19 17 15 13 11 10 9 7 6 4 2 2 3 5 6 8 8 9 12 11 11
8 8 8 8 7 8 10 6 3 3 4 5 7 8 9 10 13 14 14 14 13 15 16 16 15 13 16 19 16 15 15 11 9 7 6 10 15 20 25 28 32 33 35 37 38 40 41 42 43 43 44 45 44 44 43 41 39 37 34 32 34 32 31 32 30 29 30 29 28 27 26 25 24 23 22 21 20 18 16 14 12 11 10 8 7 5 3 2 3 4 5 6 7 8 9 8 9
11 11 9 10 10 11 12 7 3 3 4 4 5 9 9 9 14 16 13 12 13 14 15 16 15 14 15 18 16 15 15 11 9 9 8 8 11 18 24 27 30 32 35 38 40 42 42 42 43 43 44 44 44 44 42 40 37 35 30 27 28 27 27 29 29 29 31 30 31 31 29 28 27 25 24 22 20 19 17 15 13 12 11 9 7 5 3 2 2 3 4 4 4 6 8 7 9
12 10 12 15 14 13 13 8 6 5 6 3 2 7 8 8 13 15 9 7 10 10 12 15 16 13 13 16 15 13 12 9 10 10 10 10 10 14 20 24 28 31 35 39 41 42 42 42 43 43 43 43 43 43 42 41 39 37 34 32 31 29 27 32 35 36 36 36 35 34 31 30 28 27 25 23 21 19 17 16 14 13 11 10 7 5 4 2 3 3 4 4 4 4 6 8 10
11 6 11 14 12 10 10 6 3 4 6 4 3 2 9 5 7 10 7 7 11 9 10 13 13 11 12 13 14 11 8 8 9 8 9 10 10 12 16 23 29 31 34 38 40 41 41 42 43 43 43 43 43 43 43 42 41 40 40 39 38 35 33 36 39 39 39 38 37 35 32 31 29 28 26 24 22 20 18 16 15 14 12 10 8 7 5 3 3 3 4 5 4 4 6 8 11
8 3 8 9 8 8 7 4 5 4 4 5 2 3 7 11 6 10 11 11 11 11 10 11 11 12 13 13 13 12 9 8 9 8 9 11 12 13 17 24 30 32 34 36 38 40 41 41 43 43 43 42 42 43 43 44 43 42 41 39 38 38 38 37 37 37 37 37 36 35 33 31 30 28 27 25 22 20 18 17 15 14 12 11 9 8 6 5 4 4 5 5 5 6 7 9 10
6 2 5 6 5 5 2 3 4 1 4 6 4 6 4 13 8 9 11 11 10 12 12 13 14 14 15 13 14 14 10 9 9 10 12 12 12 16 21 25 30 32 33 36 39 41 41 40 41 41 41 41 41 43 44 45 44 43 42 39 37 37 36 34 34 35 36 36 35 35 33 32 31 29 27 25 22 21 18 17 16 14 13 11 10 9 7 6 5 5 6 5 5 7 7 9 10
4 4 3 4 3 2 4 1 1 3 5 7 5 7 3 14 8 6 6 7 9 11 11 13 14 14 14 12 13 14 10 7 9 10 11 12 14 19 21 22 26 29 32 35 37 38 39 39 39 40 41 41 41 43 45 45 45 43 42 41 39 36 34 32 32 33 35 35 35 35 35 33 32 30 28 25 23 21 19 17 16 15 13 12 11 9 8 6 5 6 6 5 6 7 7 7 9
2 5 5 6 5 5 4 1 4 2 8 6 9 12 8 9 6 6 5 6 10 10 8 10 11 11 13 11 10 12 10 7 7 8 8 9 11 16 18 20 24 27 28 31 33 35 37 38 38 40 40 41 41 43 45 46 45 45 44 43 41 39 36 34 33 34 35 36 36 36 35 34 33 31 29 26 24 21 20 18 17 15 14 13 12 10 8 7 6 6 6 6 7 7 8 8 9
4 4 4 3 5 4 5 4 5 2 9 5 12 14 12 10 6 3 4 5 9 10 8 10 11 12 12 10 9 10 9 7 7 7 7 7 8 11 14 17 21 24 27 29 32 34 36 37 38 39 39 41 42 43 45 46 46 46 46 45 44 42 40 39 38 38 38 38 38 36 35 34 34 32 30 28 25 23 22 20 18 17 16 15 13 10 9 7 7 7 7 7 8 8 9 10 12
4 5 5 1 4 3 3 3 0 4 8 5 10 9 8 12 7 2 6 7 7 9 9 11 12 12 11 11 11 9 6 6 7 7 7 8 8 9 11 15 20 24 28 31 32 34 36 37 38 39 40 42 42 43 45 46 46 47 47 47 46 45 43 43 42 41 41 41 40 39 38 38 37 35 33 31 29 26 25 23 21 20 18 15 13 11 9 8 7 8 7 8 10 10 11 12 13
6 6 6 5 3 1 2 4 3 5 7 5 5 6 5 9 4 8 13 12 11 10 10 12 12 12 12 11 9 6 6 7 7 7 7 8 9 9 10 15 20 23 28 31 33 36 36 36 38 39 40 41 42 43 45 46 47 48 48 48 47 46 45 45 44 43 43 42 42 42 42 42 41 39 38 35 31 29 27 24 22 19 17 15 14 12 10 8 8 8 9 11 11 12 12 13 13
6 5 6 5 5 4 4 5 6 5 6 5 3 5 4 5 3 9 13 12 9 9 11 12 10 10 10 6 3 3 6 6 6 7 8 8 9 9 10 15 20 24 28 31 33 35 35 36 39 41 40 41 43 44 45 46 48 48 47 47 47 47 46 45 44 43 43 43 43 43 43 42 42 40 38 35 32 29 27 24 21 20 18 16 14 12 10 9 9 10 11 12 12 12 12 13 13
4 4 4 4 5 6 5 6 6 2 3 6 3 5 6 4 5 8 8 9 8 9 11 9 9 11 9 6 5 6 6 6 6 7 8 8 8 8 11 15 20 23 26 30 33 35 37 39 41 42 43 43 44 45 46 48 47 46 46 47 46 46 45 45 45 44 44 44 44 44 43 42 41 39 37 34 31 29 27 24 22 21 19 17 14 12 11 10 10 11 12 12 11 11 12 13 14
2 4 4 5 3 6 5 6 3 1 3 7 4 5 6 5 8 8 6 8 8 7 8 8 10 11 11 10 7 7 7 7 7 7 8 8 8 8 12 16 19 23 27 33 36 39 42 42 41 42 42 40 42 46 47 47 46 45 45 46 46 46 45 46 47 46 45 44 43 43 43 41 40 38 36 33 31 29 27 25 23 21 19 17 15 13 11 11 11 12 12 12 11 12 13 13 13
6 3 6 2 3 2 3 2 3 1 6 7 6 10 8 6 8 4 3 2 6 7 9 10 11 12 13 11 7 7 8 7 6 7 7 8 8 9 12 18 23 27 31 35 37 39 39 39 40 41 41 42 45 46 45 44 44 44 45 46 47 47 47 46 45 45 45 44 43 43 42 41 40 38 36 34 32 30 28 26 24 22 20 18 15 13 12 12 12 12 12 12 12 12 13 13 12
6 3 3 3 1 2 2 3 3 5 8 7 10 13 9 7 9 5 3 5 8 10 11 11 12 12 13 11 7 8 7 5 6 8 7 8 9 9 12 18 24 28 30 32 33 33 35 38 40 40 41 43 42 40 41 42 43 44 44 44 45 45 45 43 42 43 44 45 45 44 42 41 39 38 36 35 34 32 30 27 25 23 20 18 16 14 13 12 12 12 12 12 12 12 12 12 11
1 1 2 1 3 4 4 4 3 5 9 8 10 12 9 9 7 4 8 9 9 10 9 9 12 12 12 10 9 8 7 7 8 8 8 9 10 11 16 21 25 28 31 30 29 31 35 37 37 38 40 39 38 39 42 42 43 43 42 41 42 42 42 42 41 42 44 45 46 45 43 41 40 39 37 37 35 34 32 29 26 24 21 19 17 15 14 13 13 12 12 12 12 11 12 13 12
3 2 4 3 2 2 1 2 2 4 7 7 8 9 10 9 3 3 6 7 8 9 9 9 11 11 11 10 9 8 7 8 8 8 9 10 10 11 17 22 24 24 25 26 30 33 35 35 36 38 38 37 38 41 42 43 43 42 41 40 40 40 40 40 41 42 43 43 44 45 44 42 41 40 39 38 37 35 32 29 27 24 22 19 17 16 15 14 13 13 12 13 12 12 13 14 14
7 6 7 6 5 3 3 6 5 4 5 5 7 8 11 10 1 4 2 4 6 9 9 9 11 12 11 9 8 9 8 8 8 8 9 9 9 10 14 18 19 20 23 28 31 32 32 35 39 39 38 38 40 42 43 44 42 40 40 40 39 38 39 39 40 41 41 42 42 44 44 44 43 42 41 40 37 35 32 29 27 24 22 20 18 17 16 15 14 13 13 13 13 13 14 15 15
Wind_Direction
102 100 74 49 6 349 330 57 67 320 91 288 272 220 265 245 204 104 65 162 94 359 36 85 67 65 98 135 150 142 118 171 172 143 208 178 147 157 155 150 162 173 176 173 168 168 163 159 159 158 160 158 156 135 120 124 122 113 114 117 109 109 110 109 107 106 107 106 110 114 110 109 108 105 101 84 58 56 58 60 64 69 71 67 57 45 46 55 57 55 53 50 49 48 41 26 13
97 78 55 32 353 357 298 82 83 323 44 309 279 195 241 311 36 114 189 181 143 189 133 98 85 84 96 123 137 115 31 358 115 133 150 145 147 158 153 151 162 172 174 170 167 165 159 152 146 145 146 144 140 130 128 135 134 118 115 117 113 113 113 111 110 112 108 101 112 139 157 149 116 94 96 84 72 74 76 72 76 83 83 77 68 50 47 58 62 65 64 54 47 44 39 33 20
66 42 28 14 337 46 16 45 94 101 45 272 279 249 217 75 145 151 188 169 169 171 104 78 68 81 44 53 109 104 215 276 118 110 121 153 159 164 158 153 159 172 174 169 171 168 158 150 143 141 137 133 129 124 127 130 127 114 110 110 115 115 108 107 107 107 102 100 102 107 112 88 84 78 81 82 74 75 88 90 84 89 84 76 69 58 46 49 52 56 55 40 32 23 10 13 4
61 39 13 22 32 33 55 51 155 152 221 237 270 271 216 152 179 165 147 177 189 138 80 69 51 29 51 90 146 68 164 203 160 140 150 177 175 165 160 156 161 172 173 172 180 177 163 155 149 144 136 132 132 128 125 122 118 109 106 103 105 105 101 101 101 101 100 100 97 93 92 88 85 82 81 83 80 73 72 72 69 69 71 68 66 63 49 33 20 13 8 353 355 1 356 357 355
52 39 356 29 76 32 79 103 166 143 224 213 248 271 219 164 170 171 165 183 208 88 113 123 104 288 72 165 205 129 174 132 161 157 154 180 177 163 162 161 165 174 177 180 184 184 170 161 156 153 143 138 141 136 130 127 126 121 119 119 113 108 106 105 101 100 101 100 98 95 91 89 87 85 83 82 78 67 58 54 53 49 49 51 53 51 41 32 22 14 3 351 343 344 345 346 349
23 26 358 24 110 151 95 275 280 255 240 194 228 261 197 168 166 159 134 31 13 24 83 125 151 162 63 272 66 156 179 130 154 170 160 170 173 166 165 164 169 180 182 184 188 189 173 165 164 162 159 157 160 155 153 151 151 155 154 153 148 141 136 129 119 113 112 112 107 103 97 95 92 89 86 80 71 63 56 49 46 45 45 42 40 36 34 28 17 11 4 360 351 345 344 341 340
12 11 18 38 360 66 105 231 239 247 251 199 202 219 172 172 164 139 130 73 9 350 14 153 146 113 203 217 79 163 160 143 154 177 169 163 166 167 166 165 174 182 181 184 186 184 172 170 171 169 171 169 170 170 169 167 167 167 165 163 161 159 157 153 147 140 135 129 118 109 102 99 96 94 87 80 75 68 60 54 48 44 43 40 40 37 34 27 13 3 354 352 349 347 346 342 339
20 2 69 79 19 11 116 249 248 214 251 238 202 189 167 168 157 138 161 173 158 229 294 234 125 100 255 185 158 255 156 164 168 173 166 157 162 165 166 168 175 179 180 183 178 176 174 174 175 173 174 172 171 171 170 168 168 167 166 166 166 167 166 162 161 156 148 143 133 122 110 107 105 99 90 84 77 71 66 61 56 49 44 39 36 35 31 26 14 4 356 351 348 347 346 345 343
355 32 44 81 73 330 286 272 269 232 250 254 227 201 169 166 156 139 162 176 149 175 207 190 127 129 240 184 201 282 161 165 158 161 161 159 162 163 167 173 179 177 179 183 178 175 176 177 177 176 175 174 172 171 170 168 167 168 167 167 170 172 171 170 167 160 151 141 129 121 111 109 104 98 92 87 80 75 72 66 64 58 54 47 43 41 35 29 21 13 6 1 357 354 351 349 347
354 66 80 76 97 305 300 269 254 267 259 223 206 200 170 168 159 143 151 178 171 158 206 174 122 193 203 192 219 297 179 161 151 155 162 162 162 164 169 178 185 181 182 185 183 181 180 179 177 177 176 175 174 172 170 168 169 170 171 172 175 174 169 168 162 154 142 129 119 112 105 103 100 97 91 86 82 76 73 69 66 61 56 52 47 44 39 36 30 23 19 16 14 10 7 3 360
24 337 93 78 42 264 267 257 256 276 280 245 215 219 178 160 139 149 151 163 175 144 170 149 151 227 173 243 257 153 166 163 159 159 163 164 163 167 171 179 187 187 186 184 184 183 182 181 178 178 177 176 175 173 171 171 174 175 180 182 181 176 166 160 152 143 132 121 113 106 101 99 96 94 89 85 80 75 71 65 62 56 52 47 42 39 35 33 29 26 23 22 22 20 19 17 17
70 316 77 104 220 222 231 259 276 275 296 317 243 259 190 135 117 181 173 158 166 147 174 174 177 172 149 260 276 131 158 167 171 164 164 166 166 171 175 180 187 192 190 186 183 182 183 183 181 180 179 179 177 175 177 177 183 186 189 190 184 175 164 157 148 138 131 122 115 108 103 99 94 91 86 82 79 74 70 63 60 54 49 44 39 36 31 30 28 26 25 25 26 26 26 27 28
126 198 86 163 210 206 258 279 282 291 312 289 217 261 106 113 179 204 177 163 163 160 209 197 157 135 175 243 289 159 170 177 175 166 165 166 169 172 175 179 186 191 192 190 184 182 183 184 184 183 183 182 180 179 181 183 190 193 193 192 183 174 165 158 149 141 135 128 122 116 111 106 101 97 91 87 83 80 75 69 63 57 53 48 43 40 36 35 32 30 30 30 31 31 32 34 34
186 192 116 241 258 230 256 270 288 299 292 264 238 259 100 118 219 191 152 178 191 187 226 199 146 118 208 224 254 228 193 185 174 169 168 169 173 172 174 179 184 189 193 193 187 186 185 186 187 187 187 185 184 183 186 190 193 195 195 193 183 174 167 159 154 149 144 140 136 130 125 119 113 108 103 100 95 91 87 81 76 71 67 60 57 53 48 45 42 38 36 34 33 32 31 32 33
184 256 104 245 314 309 242 229 261 258 254 242 207 189 146 257 213 152 172 198 232 228 231 185 153 135 201 190 229 231 189 182 173 170 169 170 176 175 178 180 184 189 193 194 189 190 189 189 190 189 190 188 188 189 192 194 193 196 195 192 184 175 169 164 161 158 155 151 147 142 135 129 123 119 116 112 108 103 96 92 89 84 78 75 70 64 61 58 54 49 46 43 39 35 32 31 29
139 93 66 322 280 288 249 231 243 240 252 235 208 145 130 287 304 109 226 170 249 276 108 191 194 183 183 190 228 190 172 174 170 170 168 169 174 178 182 182 185 188 191 194 192 193 192 192 192 191 192 191 192 193 195 195 193 194 192 189 182 175 172 168 166 164 161 155 151 146 138 131 125 121 117 112 107 101 96 93 88 83 79 77 71 64 62 57 53 48 45 42 38 36 33 31 29
67 79 82 280 247 235 233 235 247 214 247 257 274 141 151 284 311 142 248 133 192 261 224 226 230 205 180 194 168 150 159 164 166 167 165 168 171 173 180 184 186 187 191 195 195 196 194 193 193 193 193 194 195 195 196 194 192 190 188 185 179 176 173 171 169 164 159 154 152 147 133 125 120 115 112 107 101 97 94 90 82 78 72 69 64 58 57 54 50 44 40 37 33 31 29 28 27
64 92 165 240 229 221 209 216 243 194 225 243 246 202 166 240 273 280 322 268 230 238 252 252 268 336 60 133 141 146 155 160 164 165 166 169 172 173 180 186 188 190 190 192 196 198 197 196 195 195 195 196 196 197 196 192 191 188 185 182 177 176 172 170 166 158 155 150 146 137 123 117 113 111 109 105 100 96 92 84 77 72 66 63 59 54 53 51 47 43 39 34 30 27 25 24 22
124 153 194 232 215 227 232 239 263 268 220 207 227 215 181 209 210 124 251 263 253 236 256 236 246 276 77 124 141 148 155 161 167 169 171 176 179 183 186 188 191 194 192 193 196 198 200 199 197 198 199 199 197 197 196 192 191 188 184 181 177 174 171 167 161 155 152 146 140 134 129 126 122 118 114 109 104 99 94 85 77 72 68 65 60 55 50 45 42 38 35 31 29 26 24 22 20
183 168 220 245 224 249 279 279 264 254 223 179 249 220 193 230 188 130 227 262 255 226 234 204 227 235 179 152 151 154 160 166 174 176 180 186 189 191 190 190 194 198 198 197 196 197 200 200 200 200 201 202 200 197 194 192 191 187 183 179 177 174 170 166 161 159 156 150 147 146 145 140 134 131 125 118 113 108 100 92 86 82 75 69 64 56 50 44 38 34 31 27 24 22 21 20 18
190 166 208 239 224 273 277 273 247 184 113 137 302 357 273 253 172 169 189 266 268 234 223 209 222 225 190 176 172 167 169 174 181 185 189 193 197 199 199 198 200 203 202 199 197 197 200 202 202 201 203 205 203 198 194 193 190 186 182 180 179 175 171 168 165 166 162 158 154 154 155 148 142 140 135 128 121 115 107 100 93 85 74 64 57 50 46 40 34 31 28 24 22 21 19 18 15
206 210 217 235 236 275 270 260 232 165 93 108 329 303 264 252 175 199 180 224 255 222 211 215 222 226 189 179 183 176 177 182 187 193 197 199 202 204 206 206 205 205 203 201 201 200 202 203 204 202 203 205 205 201 196 195 192 187 185 182 180 177 175 172 170 171 166 162 160 160 162 155 148 146 144 136 126 121 113 101 87 76 64 53 47 40 36 32 27 26 22 21 21 20 19 17 16
225 251 235 241 238 252 267 269 244 200 168 223 239 241 247 296 269 230 195 227 241 201 193 206 216 227 198 180 176 181 189 191 194 198 201 202 204 206 207 207 206 205 204 206 204 203 203 203 205 205 204 204 205 202 198 197 195 192 189 186 184 182 179 178 176 174 170 169 168 168 170 163 155 154 151 142 132 127 115 99 81 70 58 46 40 33 28 26 21 19 17 16 16 16 17 16 15
216 261 274 263 250 246 264 278 249 207 210 226 218 299 267 247 264 268 224 238 243 235 236 222 216 207 179 173 177 191 196 196 202 205 205 206 208 210 208 207 207 206 205 206 205 203 205 204 205 206 206 206 203 200 198 198 196 193 191 190 189 186 185 185 181 178 176 176 176 175 177 172 165 163 158 151 143 132 118 100 82 65 56 45 36 29 25 23 19 16 15 13 14 14 14 13 13
222 244 269 272 266 263 279 292 264 233 229 224 237 275 243 225 264 297 256 251 249 235 248 246 236 197 159 176 190 197 202 205 210 211 212 215 214 214 212 210 208 206 206 207 205 205 206 205 205 207 207 206 203 199 198 198 196 193 194 194 192 190 190 191 186 183 182 179 180 181 182 180 174 172 165 159 151 137 123 105 88 66 56 46 35 28 24 21 18 16 13 13 12 12 13 10 9
226 231 263 280 280 280 289 291 273 255 242 182 216 258 247 228 283 284 258 253 253 234 239 244 234 229 203 191 195 197 204 209 211 213 215 218 216 215 215 212 208 208 210 208 205 206 206 205 205 207 207 206 203 200 199 198 196 196 197 197 195 193 193 195 190 187 185 183 185 184 187 184 177 177 169 163 156 142 129 113 96 69 56 43 34 27 22 18 15 13 11 9 8 9 10 7 3
239 258 287 280 282 287 274 273 272 261 248 190 206 253 263 223 185 268 261 245 233 227 241 243 225 232 223 205 205 199 205 211 210 210 212 213 211 214 215 211 210 211 210 207 207 207 204 204 205 207 207 206 203 201 201 199 198 199 199 197 197 195 195 196 194 191 187 186 187 186 188 186 179 179 171 167 160 148 139 123 103 68 53 38 29 23 19 15 12 10 7 5 4 4 5 3 359
287 331 315 288 295 300 273 266 268 255 251 201 189 252 286 182 179 246 256 240 178 222 242 243 223 233 228 217 216 204 212 217 211 205 203 206 208 211 212 211 210 210 209 208 208 205 203 203 203 205 205 205 204 203 201 199 199 201 200 198 197 198 197 197 196 196 192 187 189 189 189 188 183 179 175 174 167 157 153 139 130 64 52 32 24 20 15 11 9 7 5 4 1 358 358 360 356
292 18 317 289 313 300 273 268 254 212 221 179 147 287 285 234 220 242 253 253 249 249 255 247 228 232 232 227 224 215 224 219 207 205 211 212 211 210 211 213 210 207 210 209 206 204 203 203 201 202 203 204 204 203 202 201 201 201 200 199 198 199 198 198 198 200 198 190 189 190 190 190 185 181 180 180 173 170 166 161 188 81 50 24 20 16 10 8 5 3 1 1 357 354 355 355 352
283 359 240 282 325 294 269 265 235 205 198 150 129 279 266 243 238 244 254 252 246 253 253 246 236 236 233 231 230 230 230 217 206 213 217 216 214 213 214 216 211 208 209 205 204 205 203 202 201 200 201 203 203 203 203 201 201 201 201 200 199 200 199 199 199 202 202 194 190 191 193 194 186 181 185 185 180 180 177 180 200 176 37 19 20 13 9 7 3 1 360 357 354 352 353 352 347
270 307 227 259 300 276 272 251 167 180 202 151 137 221 258 258 253 250 255 242 230 241 247 244 239 239 236 233 232 238 236 221 219 221 220 217 214 215 216 216 211 208 207 204 205 204 202 200 199 199 199 202 202 202 202 202 202 201 201 200 199 201 200 199 201 203 205 200 194 192 195 198 189 184 186 187 185 183 183 188 197 195 33 22 19 14 11 7 3 2 358 354 352 351 350 348 344
221 243 278 267 207 261 285 269 181 182 226 165 146 196 258 262 263 260 257 234 222 231 244 245 240 240 238 238 234 240 245 232 229 229 225 219 215 216 216 214 209 207 207 205 204 201 200 200 198 197 197 199 201 201 201 202 202 201 201 201 200 201 199 200 202 204 206 203 198 195 197 198 192 189 188 188 187 185 185 189 195 196 134 29 18 18 14 8 5 360 357 354 350 348 345 343 343
275 200 249 260 227 265 297 289 217 170 160 191 193 210 257 263 266 269 266 233 221 227 243 245 242 244 237 239 238 239 248 245 239 236 227 218 216 217 215 214 210 208 208 205 202 199 197 197 196 197 197 198 199 199 199 200 201 201 202 201 201 201 200 200 202 204 206 203 199 197 198 198 193 191 191 190 187 185 186 189 192 189 185 20 21 19 14 9 2 358 359 357 350 345 341 341 343
280 212 234 254 244 259 277 292 305 145 146 201 222 228 250 259 268 281 284 252 220 220 238 244 242 246 240 239 241 239 245 246 245 237 224 217 217 218 215 214 212 208 207 204 201 199 196 194 194 195 195 195 197 197 197 199 199 200 201 201 201 201 200 201 202 204 206 205 202 199 199 199 194 189 192 192 188 187 186 188 191 190 203 253 17 11 13 8 1 0 358 355 350 343 341 343 343
233 208 226 255 250 254 258 268 242 156 170 205 220 233 250 259 265 270 273 266 245 231 234 243 244 246 245 242 241 240 242 245 247 239 224 217 217 216 213 211 210 206 203 202 200 198 194 192 192 193 193 192 194 195 195 195 196 197 198 198 199 200 199 199 201 204 207 207 204 199 198 199 195 190 192 193 190 190 189 189 194 198 217 242 339 354 11 6 3 1 353 350 346 342 344 345 345
227 230 240 250 253 258 257 262 224 176 196 217 219 232 242 254 258 257 262 263 259 252 242 244 248 250 250 248 246 243 243 248 251 238 223 219 217 214 208 207 205 202 200 198 196 194 192 189 189 191 191 191 191 191 191 191 191 192 193 193 195 197 197 197 201 204 206 208 207 202 200 199 197 193 193 195 194 194 194 196 200 206 222 230 254 297 358 4 5 358 349 345 340 340 343 345 348
252 257 261 256 255 264 260 265 248 186 199 228 224 236 241 248 255 252 255 263 262 258 248 241 244 247 250 251 253 252 248 254 261 237 220 218 216 209 203 201 198 196 195 194 192 191 191 188 188 189 190 190 190 189 189 189 189 189 190 192 194 194 195 196 198 202 205 208 208 206 202 200 199 197 196 197 197 198 198 199 202 209 219 224 232 240 325 358 3 352 346 345 340 339 339 342 348
250 253 261 261 248 261 261 258 257 198 200 248 237 243 250 249 255 256 252 252 255 254 248 246 244 243 249 253 255 256 252 260 275 249 219 213 208 200 195 193 191 189 190 191 190 190 190 189 190 190 189 190 191 191 191 192 193 193 192 194 194 193 194 196 198 201 204 206 207 208 206 204 204 201 199 199 201 202 201 202 205 211 217 220 223 228 281 341 351 344 342 344 343 338 334 336 347
243 246 256 263 250 267 268 250 255 211 190 252 250 247 253 253 257 259 249 239 244 248 246 248 248 246 253 253 253 256 257 262 267 251 214 203 196 188 187 189 190 190 188 189 190 189 188 189 191 191 190 191 192 193 194 194 195 196 197 197 195 193 194 198 200 200 202 204 207 208 208 208 208 205 202 203 204 203 203 205 207 212 217 218 220 227 254 315 334 339 342 341 341 336 331 332 343
239 239 249 258 250 263 267 249 250 220 207 254 264 260 257 258 266 260 247 241 242 248 248 251 252 247 251 253 254 259 259 253 245 238 212 194 184 181 185 187 188 187 185 186 187 187 188 190 191 191 192 192 193 194 195 196 195 196 198 199 197 195 194 197 199 199 201 203 204 206 208 210 211 209 207 206 206 205 205 206 209 213 216 220 224 233 256 301 325 335 341 338 336 328 325 325 328
244 233 234 249 248 242 252 271 322 288 276 287 287 286 268 235 250 256 248 241 242 248 251 255 256 247 251 258 256 255 256 243 225 225 209 187 181 185 188 187 185 184 185 186 187 189 190 191 192 193 193 194 194 195 195 195 193 192 192 191 191 192 191 192 193 195 198 202 205 207 209 210 211 211 209 208 207 206 206 206 210 214 217 221 227 235 251 286 313 324 330 328 323 312 309 307 307
258 230 214 236 246 245 255 290 335 315 294 285 227 284 276 208 224 248 252 240 240 241 239 246 252 248 250 259 258 250 245 233 221 217 199 190 189 187 187 186 185 185 188 189 190 191 191 192 193 194 194 195 196 195 195 194 193 191 188 185 184 184 185 190 194 195 197 201 206 208 208 209 210 210 210 210 208 207 207 208 211 214 217 219 223 230 235 253 286 299 309 303 296 288 289 291 295
269 227 199 224 241 254 263 278 299 265 266 269 135 255 282 252 214 234 234 227 236 235 232 238 245 246 242 248 256 250 230 217 223 217 194 189 188 184 188 190 188 189 190 191 191 192 192 193 194 195 195 196 196 196 195 195 193 193 193 191 190 188 188 195 200 200 200 203 205 207 207 208 210 210 211 210 208 208 208 209 211 213 215 216 217 222 224 234 259 275 284 284 281 267 263 275 287
266 220 183 205 227 248 250 224 223 233 272 283 162 135 282 281 237 206 206 210 229 238 238 242 240 241 242 242 252 251 224 205 210 207 196 193 191 190 193 194 192 192 191 191 191 192 194 195 195 196 197 197 197 196 196 196 196 196 196 196 196 196 197 199 200 201 203 203 204 206 206 207 209 210 212 210 208 208 208 209 211 211 212 213 215 217 219 231 247 263 273 273 269 258 256 268 279
254 155 165 170 188 219 161 166 228 299 334 281 207 135 264 279 250 191 203 205 221 236 234 239 238 236 241 238 246 253 235 206 203 200 198 196 195 197 196 194 194 193 192 192 193 194 195 196 196 196 197 198 198 198 197 199 199 198 197 197 199 201 203 202 200 200 202 202 202 204 204 206 207 209 211 211 208 208 209 209 211 212 213 212 213 215 218 231 249 261 268 268 261 254 256 265 275
227 116 102 69 71 64 77 165 198 44 305 259 193 147 225 277 261 173 191 202 215 234 230 233 235 236 243 236 238 252 246 215 208 205 199 196 197 199 196 192 192 194 194 194 194 194 195 196 196 196 198 199 199 199 199 199 200 199 199 199 200 200 201 201 199 198 200 200 200 201 202 203 205 206 208 209 209 208 207 209 211 213 213 213 214 217 220 229 248 260 264 263 258 258 263 266 271
132 94 56 27 10 27 53 354 76 58 276 238 175 175 193 270 277 149 172 200 199 211 224 239 244 243 250 245 234 243 241 219 207 204 197 192 192 192 189 188 190 194 195 195 194 195 196 196 196 198 199 200 200 200 200 201 201 201 201 201 201 200 198 197 196 196 197 197 197 198 200 202 203 205 204 205 207 206 205 207 210 212 212 214 216 216 221 229 243 254 257 257 258 263 271 271 270
92 94 74 20 328 11 28 356 59 209 264 216 179 183 184 232 263 153 224 242 200 198 203 225 238 240 247 250 238 236 233 207 189 190 184 170 168 177 184 187 188 191 194 195 196 196 197 198 198 199 201 201 202 201 202 202 202 203 203 202 202 201 200 199 198 197 196 196 196 196 197 199 201 202 203 203 203 203 204 205 207 210 211 213 215 214 220 229 240 249 251 254 258 262 266 267 264
103 108 104 66 296 342 353 316 88 221 255 225 188 179 199 240 250 218 273 281 228 210 205 212 224 230 239 249 246 235 215 190 179 178 178 171 174 179 184 186 186 190 194 195 197 197 198 199 199 200 203 203 203 203 204 204 205 205 205 204 203 203 202 202 201 200 199 197 196 195 194 196 196 198 201 202 203 203 203 205 206 208 211 211 212 214 219 229 240 249 253 254 257 259 262 261 259
159 148 145 168 214 241 261 261 259 256 262 250 185 166 237 278 272 208 228 237 221 209 212 218 219 220 226 240 249 233 198 188 180 176 179 182 187 188 188 188 188 192 195 196 197 199 199 200 201 203 206 205 204 205 205 206 208 208 207 206 205 203 203 204 203 202 201 199 198 197 196 196 197 199 201 202 203 203 203 205 207 208 208 208 211 213 219 233 244 250 252 253 254 256 256 255 254
182 159 148 178 184 175 204 236 248 267 286 280 181 164 234 294 276 212 217 234 231 211 217 223 224 229 234 245 247 197 192 194 183 183 191 194 193 191 191 192 193 194 195 197 199 200 200 201 203 205 207 207 206 206 207 208 210 210 209 209 208 206 205 204 204 204 203 201 199 198 198 199 200 201 203 204 203 202 201 202 204 205 205 206 209 213 221 233 243 247 249 250 251 251 250 250 252
224 127 122 219 203 187 221 257 239 214 319 289 214 201 238 250 254 241 236 257 253 228 229 230 235 241 245 244 214 188 195 200 198 199 203 206 201 195 195 196 198 197 195 199 201 200 201 203 205 207 209 208 207 207 209 210 212 212 212 211 210 209 207 205 204 205 205 203 201 200 200 201 203 203 204 204 201 200 201 200 201 203 204 206 209 214 224 232 239 244 245 247 248 247 248 249 251
199 125 184 220 165 171 223 284 291 123 262 271 232 235 277 311 283 256 227 243 254 261 259 243 240 239 237 237 216 195 205 205 207 210 205 207 205 203 204 200 199 199 198 202 203 202 203 204 205 208 210 209 209 210 211 211 212 213 214 213 211 210 209 207 205 203 203 203 203 203 203 203 204 204 203 201 199 199 200 200 200 201 204 208 212 217 225 232 238 241 242 244 245 243 245 247 248
131 176 214 196 63 122 165 244 314 289 249 264 261 260 280 302 282 301 45 304 263 262 251 237 237 236 236 239 220 207 214 207 220 229 220 216 212 209 208 205 205 205 204 206 206 205 205 206 207 208 208 210 211 212 212 212 212 213 215 215 213 212 211 211 208 203 201 200 201 203 203 203 202 202 200 198 197 197 198 199 201 203 207 211 215 219 224 230 235 237 238 241 241 240 242 245 247
137 204 207 118 148 228 156 177 227 244 246 260 273 275 274 249 256 292 318 266 247 238 232 232 237 235 240 244 233 227 222 209 223 227 223 222 217 214 211 211 212 211 213 213 210 207 207 209 210 210 211 212 213 213 213 215 215 215 217 216 215 214 212 212 209 205 201 200 200 201 201 202 200 198 197 195 195 195 196 199 202 205 208 211 214 218 223 228 230 233 235 237 238 237 240 247 252
105 340 334 93 178 188 185 182 169 222 244 257 271 279 275 251 242 245 241 233 232 237 235 238 240 238 242 241 232 226 213 208 216 215 218 220 219 218 214 214 214 213 215 214 209 208 209 211 211 212 215 214 213 213 214 215 216 217 218 218 217 215 213 212 210 207 204 201 201 200 199 199 197 195 195 194 194 195 197 200 202 205 208 210 213 216 220 224 227 230 232 234 234 234 241 249 254
187 214 249 247 220 174 224 236 174 208 236 244 252 263 270 262 191 158 237 225 211 220 217 226 236 236 242 244 236 226 214 217 219 213 220 221 221 225 222 222 220 217 217 213 209 210 210 211 212 213 215 214 214 215 215 216 216 217 218 218 217 216 214 212 211 209 206 203 201 200 198 197 195 195 195 194 195 197 199 201 202 205 208 210 212 214 218 222 223 225 228 230 232 234 242 250 255
179 199 213 214 220 219 255 251 222 216 235 236 243 252 264 268 193 117 235 212 203 218 212 221 233 230 234 241 237 227 219 224 223 218 222 220 219 224 223 224 221 216 215 213 211 211 209 211 213 213 213 214 216 216 216 216 215 215 217 218 217 216 214 212 211 209 207 204 202 199 197 195 194 195 196 196 196 197 199 201 202 205 208 208 211 213 216 218 219 221 224 227 232 236 243 251 255